Weather in Toyda Pervaya

Russia / Voronezh Oblast     51°32′52″N   40°08′15″E
temp.,
°C
wind,
m/s
gust,
m/s
humid.,
%
clouds,
%
prec.,
mm/h
press.,
hPa
HPBL,
m
7 march, sun
sun700:00−9wnw49910 0.0 1019198
03:00−9w48900 0.0 1019185
06:00−9wsw49910 0.0 1018198
09:00−6wsw611890 0.0 1017577
12:00−3wsw8137577 0.0 10141080
15:00−2sw9156588 0.0 10101073
18:00−2sw91765100 0.0 1007947
21:00−2wsw91884100 0.1 10041068
8 march, mon
mon800:00−1wsw101788100 0.4 10041080
03:00−4w478195 1.0 1005130
06:00−4sw488196 0.0 1005166
09:00−3wsw249698 0.6 1005264
12:00−1w5988100 1.2 1005882
15:000w6107698 1.5 10051300
18:00−3wnw4108458 0.1 1006331
21:00−7wnw368742 0.1 1008100
9 march, tue
tue900:00−8wnw33921 0.0 100953
03:00−7nnw349649 0.4 1011199
06:00−10nnw339298 0.2 101276
09:00−10nnw359154 0.2 1014222
12:00−7nw348570 0.0 1014545
15:00−6nw358285 0.1 1016778
18:00−7nw3694100 0.4 1017408
21:00−10nnw499399 0.7 1019427
10 march, wed
wed1000:00−13nnw369330 0.0 1020123
03:00−14nw349316 0.0 102286
06:00−15nw359644 0.0 1023123
09:00−14nnw479153 0.0 1025385
12:00−12nnw458235 0.0 1026614
15:00−12n347636 0.0 1026599
18:00−14nne228782 0.0 102650
21:00−17ne238960 0.0 102855
11 march, thu
thu1100:00−18ne229133 0.0 102966
03:00−19ene229017 0.0 103039
06:00−20e22870 0.0 103142
09:00−17se23787 0.0 1032150
12:00−13sse237121 0.0 1032323
15:00−10sse346915 0.0 1031466
18:00−12se33820 0.0 103044
21:00−13sse46810 0.0 103097